Time,TemperatureF,DewpointF,PressureIn,WindDirection,WindDirectionDegrees,WindSpeedMPH,WindSpeedGustMPH,Humidity,HourlyPrecipIn,Conditions,Clouds,dailyrainin,SoftwareType,DateUTC
2013-07-01 00:11:00,76.7,75.0,29.94,SSE,167,0.0,-999.0,95,-99.99,,,1.73,weatherlink.com 1.10,2013-07-01 04:11:00,
2013-07-01 00:26:00,76.7,75.0,29.95,SSE,165,0.0,-999.0,95,-99.99,,,1.73,weatherlink.com 1.10,2013-07-01 04:26:00,
2013-07-01 00:41:00,77.0,76.0,29.95,South,175,0.0,-999.0,95,-99.99,,,1.73,weatherlink.com 1.10,2013-07-01 04:41:00,
2013-07-01 00:56:00,77.2,76.0,29.95,South,171,0.0,-999.0,95,-99.99,,,1.73,weatherlink.com 1.10,2013-07-01 04:56:00,
2013-07-01 01:11:00,77.2,76.0,29.95,SSW,207,1.0,-999.0,95,-99.99,,,1.73,weatherlink.com 1.10,2013-07-01 05:11:00,
2013-07-01 01:26:00,77.3,76.0,29.94,SSE,164,2.0,-999.0,94,-99.99,,,0.00,weatherlink.com 1.10,2013-07-01 05:26:00,
2013-07-01 01:41:00,77.6,76.0,29.94,SSE,152,0.0,-999.0,94,-99.99,,,0.00,weatherlink.com 1.10,2013-07-01 05:41:00,
2013-07-01 01:56:00,77.6,76.0,29.93,SSW,194,0.0,-999.0,93,-99.99,,,0.00,weatherlink.com 1.10,2013-07-01 05:56:00,
2013-07-01 02:11:00,77.5,75.0,29.92,SSE,154,0.0,-999.0,93,-99.99,,,0.00,weatherlink.com 1.10,2013-07-01 06:11:00,
2013-07-01 02:26:00,77.5,75.0,29.92,South,190,2.0,-999.0,92,-99.99,,,0.00,weatherlink.com 1.10,2013-07-01 06:26:00,
2013-07-01 02:41:00,77.5,75.0,29.91,SSE,155,0.0,-999.0,92,-99.99,,,0.00,weatherlink.com 1.10,2013-07-01 06:41:00,
2013-07-01 02:56:00,77.4,75.0,29.91,SSE,150,0.0,-999.0,92,-99.99,,,0.00,weatherlink.com 1.10,2013-07-01 06:56:00,
2013-07-01 03:11:00,77.4,75.0,29.91,SSE,166,2.0,-999.0,92,-99.99,,,0.00,weatherlink.com 1.10,2013-07-01 07:11:00,
2013-07-01 03:26:00,77.2,75.0,29.91,SSE,152,0.0,-999.0,93,-99.99,,,0.00,weatherlink.com 1.10,2013-07-01 07:26:00,
2013-07-01 03:41:00,77.1,75.0,29.91,SE,146,0.0,-999.0,93,-99.99,,,0.00,weatherlink.com 1.10,2013-07-01 07:41:00,
2013-07-01 03:56:00,76.9,75.0,29.92,SE,146,0.0,-999.0,93,-99.99,,,0.00,weatherlink.com 1.10,2013-07-01 07:56:00,
2013-07-01 04:11:00,76.9,75.0,29.91,SE,146,0.0,-999.0,94,-99.99,,,0.00,weatherlink.com 1.10,2013-07-01 08:11:00,
2013-07-01 04:26:00,77.0,75.0,29.91,SE,144,0.0,-999.0,94,-99.99,,,0.00,weatherlink.com 1.10,2013-07-01 08:26:00,
2013-07-01 04:41:00,77.2,75.0,29.91,South,171,1.0,-999.0,94,-99.99,,,0.00,weatherlink.com 1.10,2013-07-01 08:41:00,
2013-07-01 04:56:00,77.6,76.0,29.91,SSE,150,0.0,-999.0,93,-99.99,,,0.00,weatherlink.com 1.10,2013-07-01 08:56:00,
2013-07-01 05:11:00,78.1,76.0,29.91,South,187,0.0,-999.0,93,-99.99,,,0.00,weatherlink.com 1.10,2013-07-01 09:11:00,
2013-07-01 05:26:00,78.3,76.0,29.91,SSE,149,2.0,-999.0,92,-99.99,,,0.00,weatherlink.com 1.10,2013-07-01 09:26:00,
2013-07-01 05:41:00,78.5,76.0,29.91,SSE,167,1.0,-999.0,91,-99.99,,,0.00,weatherlink.com 1.10,2013-07-01 09:41:00,
2013-07-01 05:56:00,78.7,76.0,29.91,SSE,149,2.0,-999.0,91,-99.99,,,0.00,weatherlink.com 1.10,2013-07-01 09:56:00,
2013-07-01 06:11:00,78.7,76.0,29.92,South,183,0.0,-999.0,91,-99.99,,,0.00,weatherlink.com 1.10,2013-07-01 10:11:00,
2013-07-01 06:26:00,78.8,76.0,29.93,SSE,159,0.0,-999.0,91,-99.99,,,0.00,weatherlink.com 1.10,2013-07-01 10:26:00,
2013-07-01 06:41:00,78.8,76.0,29.94,SSE,163,0.0,-999.0,92,-99.99,,,0.00,weatherlink.com 1.10,2013-07-01 10:41:00,
2013-07-01 06:56:00,79.0,77.0,29.94,SSW,192,2.0,-999.0,92,-99.99,,,0.00,weatherlink.com 1.10,2013-07-01 10:56:00,
2013-07-01 07:11:00,79.8,77.0,29.95,SE,136,4.0,-999.0,90,-99.99,,,0.00,weatherlink.com 1.10,2013-07-01 11:11:00,
2013-07-01 07:27:00,80.6,76.0,29.95,South,185,1.0,-999.0,86,-99.99,,,0.00,weatherlink.com 1.10,2013-07-01 11:27:00,
2013-07-01 07:42:00,81.1,77.0,29.95,South,190,1.0,-999.0,86,-99.99,,,0.00,weatherlink.com 1.10,2013-07-01 11:42:00,
2013-07-01 07:57:00,81.1,77.0,29.95,SSE,155,4.0,-999.0,86,-99.99,,,0.00,weatherlink.com 1.10,2013-07-01 11:57:00,
2013-07-01 08:12:00,81.5,77.0,29.95,East,101,4.0,-999.0,87,-99.99,,,0.00,weatherlink.com 1.10,2013-07-01 12:12:00,
2013-07-01 08:27:00,81.8,78.0,29.95,SSW,202,0.0,-999.0,87,-99.99,,,0.00,weatherlink.com 1.10,2013-07-01 12:27:00,
2013-07-01 08:42:00,82.0,78.0,29.95,South,169,5.0,-999.0,87,-99.99,,,0.00,weatherlink.com 1.10,2013-07-01 12:42:00,
2013-07-01 08:57:00,82.5,78.0,29.95,SSE,161,7.0,-999.0,85,-99.99,,,0.00,weatherlink.com 1.10,2013-07-01 12:57:00,
2013-07-01 09:12:00,83.0,77.0,29.95,SSE,155,6.0,-999.0,83,-99.99,,,0.00,weatherlink.com 1.10,2013-07-01 13:12:00,
2013-07-01 09:27:00,83.5,78.0,29.95,SE,133,6.0,-999.0,82,-99.99,,,0.00,weatherlink.com 1.10,2013-07-01 13:27:00,
2013-07-01 09:42:00,84.4,77.0,29.95,SSE,157,5.0,-999.0,79,-99.99,,,0.00,weatherlink.com 1.10,2013-07-01 13:42:00,
2013-07-01 09:57:00,84.8,77.0,29.95,SSE,167,10.0,-999.0,76,-99.99,,,0.00,weatherlink.com 1.10,2013-07-01 13:57:00,
2013-07-01 10:12:00,86.0,77.0,29.95,South,188,6.0,-999.0,75,-99.99,,,0.00,weatherlink.com 1.10,2013-07-01 14:12:00,
2013-07-01 10:27:00,86.3,78.0,29.95,SSW,213,3.0,-999.0,75,-99.99,,,0.00,weatherlink.com 1.10,2013-07-01 14:27:00,
2013-07-01 10:42:00,86.5,77.0,29.95,South,171,6.0,-999.0,74,-99.99,,,0.00,weatherlink.com 1.10,2013-07-01 14:42:00,
2013-07-01 10:57:00,86.3,77.0,29.95,SE,146,11.0,-999.0,74,-99.99,,,0.00,weatherlink.com 1.10,2013-07-01 14:57:00,
2013-07-01 11:12:00,87.0,77.0,29.95,SSE,152,6.0,-999.0,73,-99.99,,,0.00,weatherlink.com 1.10,2013-07-01 15:12:00,
2013-07-01 11:27:00,87.2,78.0,29.96,SSE,164,5.0,-999.0,73,-99.99,,,0.00,weatherlink.com 1.10,2013-07-01 15:27:00,
2013-07-01 11:42:00,87.4,78.0,29.96,South,184,7.0,-999.0,73,-99.99,,,0.00,weatherlink.com 1.10,2013-07-01 15:42:00,
2013-07-01 11:57:00,87.4,78.0,29.96,SSE,157,15.0,-999.0,73,-99.99,,,0.00,weatherlink.com 1.10,2013-07-01 15:57:00,
2013-07-01 12:12:00,87.9,78.0,29.96,SSE,157,7.0,-999.0,72,-99.99,,,0.00,weatherlink.com 1.10,2013-07-01 16:12:00,
2013-07-01 12:27:00,88.3,78.0,29.97,South,176,10.0,-999.0,72,-99.99,,,0.00,weatherlink.com 1.10,2013-07-01 16:27:00,
2013-07-01 12:42:00,88.9,77.0,29.97,South,180,10.0,-999.0,67,-99.99,,,0.00,weatherlink.com 1.10,2013-07-01 16:42:00,
2013-07-01 12:57:00,89.0,77.0,29.97,SE,145,8.0,-999.0,67,-99.99,,,0.00,weatherlink.com 1.10,2013-07-01 16:57:00,
2013-07-01 13:12:00,89.3,77.0,29.96,SSW,195,7.0,-999.0,67,-99.99,,,0.00,weatherlink.com 1.10,2013-07-01 17:12:00,
2013-07-01 13:27:00,89.2,77.0,29.96,SSE,167,6.0,-999.0,68,-99.99,,,0.00,weatherlink.com 1.10,2013-07-01 17:27:00,
2013-07-01 13:42:00,88.7,76.0,29.96,South,175,5.0,-999.0,66,-99.99,,,0.00,weatherlink.com 1.10,2013-07-01 17:42:00,
2013-07-01 13:57:00,88.5,76.0,29.96,East,93,5.0,-999.0,66,-99.99,,,0.00,weatherlink.com 1.10,2013-07-01 17:57:00,
2013-07-01 14:12:00,88.0,77.0,29.95,SSE,150,7.0,-999.0,69,-99.99,,,0.00,weatherlink.com 1.10,2013-07-01 18:12:00,
2013-07-01 14:27:00,88.0,78.0,29.95,South,191,3.0,-999.0,71,-99.99,,,0.00,weatherlink.com 1.10,2013-07-01 18:27:00,
2013-07-01 14:42:00,87.7,78.0,29.95,SSE,155,5.0,-999.0,73,-99.99,,,0.00,weatherlink.com 1.10,2013-07-01 18:42:00,
2013-07-01 14:57:00,87.4,78.0,29.94,SW,223,7.0,-999.0,73,-99.99,,,0.00,weatherlink.com 1.10,2013-07-01 18:57:00,
2013-07-01 15:12:00,87.4,77.0,29.95,NW,309,9.0,-999.0,71,-99.99,,,0.00,weatherlink.com 1.10,2013-07-01 19:12:00,
2013-07-01 15:27:00,86.8,78.0,29.95,South,183,5.0,-999.0,74,-99.99,,,0.00,weatherlink.com 1.10,2013-07-01 19:27:00,
2013-07-01 15:42:00,86.1,77.0,29.94,South,186,3.0,-999.0,74,-99.99,,,0.00,weatherlink.com 1.10,2013-07-01 19:42:00,
2013-07-01 15:57:00,85.6,77.0,29.93,WSW,250,8.0,-999.0,75,-99.99,,,0.00,weatherlink.com 1.10,2013-07-01 19:57:00,
2013-07-01 16:12:00,85.4,77.0,29.94,SSE,159,8.0,-999.0,76,-99.99,,,0.00,weatherlink.com 1.10,2013-07-01 20:12:00,
2013-07-01 16:27:00,85.4,77.0,29.94,SE,131,9.0,-999.0,75,-99.99,,,0.00,weatherlink.com 1.10,2013-07-01 20:27:00,
2013-07-01 16:42:00,85.6,77.0,29.95,SSW,204,6.0,-999.0,75,-99.99,,,0.00,weatherlink.com 1.10,2013-07-01 20:42:00,
2013-07-01 16:57:00,85.4,77.0,29.95,SSW,194,6.0,-999.0,75,-99.99,,,0.00,weatherlink.com 1.10,2013-07-01 20:57:00,
2013-07-01 17:12:00,85.0,76.0,29.95,SSW,205,5.0,-999.0,74,-99.99,,,0.00,weatherlink.com 1.10,2013-07-01 21:12:00,
2013-07-01 17:27:00,84.7,76.0,29.96,SSE,163,5.0,-999.0,76,-99.99,,,0.00,weatherlink.com 1.10,2013-07-01 21:27:00,
2013-07-01 17:42:00,84.6,77.0,29.96,SE,141,2.0,-999.0,77,-99.99,,,0.00,weatherlink.com 1.10,2013-07-01 21:42:00,
2013-07-01 17:57:00,84.5,77.0,29.97,SSE,157,6.0,-999.0,78,-99.99,,,0.00,weatherlink.com 1.10,2013-07-01 21:57:00,
2013-07-01 18:12:00,84.5,77.0,29.97,SW,225,1.0,-999.0,78,-99.99,,,0.00,weatherlink.com 1.10,2013-07-01 22:12:00,
2013-07-01 18:27:00,82.0,75.0,29.98,WSW,238,1.0,-999.0,79,-99.99,,,0.00,weatherlink.com 1.10,2013-07-01 22:27:00,
2013-07-01 18:42:00,80.6,74.0,29.99,NW,313,2.0,-999.0,81,-99.99,,,0.00,weatherlink.com 1.10,2013-07-01 22:42:00,
2013-07-01 18:57:00,80.3,74.0,29.98,WNW,299,0.0,-999.0,82,-99.99,,,0.00,weatherlink.com 1.10,2013-07-01 22:57:00,
2013-07-01 19:12:00,79.5,74.0,29.99,WNW,294,0.0,-999.0,84,-99.99,,,0.00,weatherlink.com 1.10,2013-07-01 23:12:00,
2013-07-01 19:27:00,79.1,74.0,29.98,NE,47,0.0,-999.0,85,-99.99,,,0.00,weatherlink.com 1.10,2013-07-01 23:27:00,
2013-07-01 19:42:00,79.0,74.0,29.99,NE,45,0.0,-999.0,85,-99.99,,,0.00,weatherlink.com 1.10,2013-07-01 23:42:00,
2013-07-01 19:57:00,79.0,74.0,29.99,NNE,19,0.0,-999.0,85,-99.99,,,0.00,weatherlink.com 1.10,2013-07-01 23:57:00,
2013-07-01 20:12:00,79.0,74.0,29.99,ESE,108,0.0,-999.0,85,-99.99,,,0.00,weatherlink.com 1.10,2013-07-02 00:12:00,
2013-07-01 20:27:00,78.8,74.0,29.99,West,277,0.0,-999.0,86,-99.99,,,0.00,weatherlink.com 1.10,2013-07-02 00:27:00,
2013-07-01 20:42:00,78.5,74.0,30.00,East,84,1.0,-999.0,85,-99.99,,,0.00,weatherlink.com 1.10,2013-07-02 00:42:00,
2013-07-01 20:57:00,78.2,74.0,30.00,ENE,67,0.0,-999.0,86,-99.99,,,0.00,weatherlink.com 1.10,2013-07-02 00:57:00,
2013-07-01 21:13:00,78.1,74.0,30.00,ENE,67,0.0,-999.0,86,-99.99,,,0.00,weatherlink.com 1.10,2013-07-02 01:13:00,
2013-07-01 21:28:00,78.0,74.0,30.00,ENE,64,0.0,-999.0,86,-99.99,,,0.00,weatherlink.com 1.10,2013-07-02 01:28:00,
2013-07-01 21:43:00,77.9,74.0,30.00,ENE,64,0.0,-999.0,87,-99.99,,,0.00,weatherlink.com 1.10,2013-07-02 01:43:00,
2013-07-01 21:58:00,78.0,74.0,30.01,NW,317,0.0,-999.0,87,-99.99,,,0.00,weatherlink.com 1.10,2013-07-02 01:58:00,
2013-07-01 22:13:00,77.9,74.0,30.01,NW,314,0.0,-999.0,88,-99.99,,,0.00,weatherlink.com 1.10,2013-07-02 02:13:00,
2013-07-01 22:28:00,77.5,74.0,30.02,NNW,329,0.0,-999.0,89,-99.99,,,0.00,weatherlink.com 1.10,2013-07-02 02:28:00,
2013-07-01 22:43:00,77.7,75.0,30.02,ESE,109,0.0,-999.0,90,-99.99,,,0.00,weatherlink.com 1.10,2013-07-02 02:43:00,
2013-07-01 22:58:00,78.1,72.0,30.02,ESE,110,1.0,-999.0,82,-99.99,,,0.00,weatherlink.com 1.10,2013-07-02 02:58:00,
2013-07-01 23:13:00,78.1,71.0,30.02,ESE,108,0.0,-999.0,79,-99.99,,,0.00,weatherlink.com 1.10,2013-07-02 03:13:00,
2013-07-01 23:28:00,78.0,71.0,30.02,SE,130,0.0,-999.0,80,-99.99,,,0.00,weatherlink.com 1.10,2013-07-02 03:28:00,
2013-07-01 23:43:00,77.9,72.0,30.03,SE,128,0.0,-999.0,82,-99.99,,,0.00,weatherlink.com 1.10,2013-07-02 03:43:00,
2013-07-01 23:58:00,77.8,72.0,30.03,ESE,123,0.0,-999.0,83,-99.99,,,0.00,weatherlink.com 1.10,2013-07-02 03:58:00,